FW7006 Weather Reports


Display with metric or nautical units.
time (UTC)temp
F
wind
direction
speed
MPH
gust
MPH
rain 1hr
in
rain 24hr
in
rain mn
in
humidity
%
barometer
mb
20260504150935 65 212 9.0 18.0 0.00 0.00 0.00 70 1005.1
20260504150432 64 210 9.0 14.0 0.00 0.00 0.00 70 1004.9
20260504140858 61 220 16.0 16.0 0.00 0.00 0.00 76 1005.3
20260504140354 61 208 13.0 15.0 0.00 0.00 0.00 77 1005.5
20260504130319 55 158 3.0 13.0 0.00 0.00 0.00 81 1005.9
20260504120237 52 201 4.0 12.0 0.00 0.00 0.00 80 1006.2
20260504110704 47 105 2.0 5.0 0.00 0.00 0.00 85 1006.0
20260504110201 47 144 3.0 5.0 0.00 0.00 0.00 86 1005.9
20260504100125 47 162 4.0 11.0 0.00 0.00 0.00 84 1006.0
20260504081518 48 146 5.0 8.0 0.00 0.00 0.00 82 1007.0
20260504081014 48 128 3.0 11.0 0.00 0.00 0.00 82 1007.2
20260504080510 48 202 7.0 11.0 0.00 0.00 0.00 82 1007.0
20260504050317 50 165 3.0 6.0 0.00 0.00 0.00 78 1008.6
20260504045814 50 125 2.0 5.0 0.00 0.00 0.00 78 1008.5
20260504045314 50 136 1.0 5.0 0.00 0.00 0.00 79 1008.5
20260504044812 50 146 2.0 5.0 0.00 0.00 0.00 78 1008.5
20260504044309 50 119 3.0 6.0 0.00 0.00 0.00 78 1008.7
20260504043806 50 131 3.0 5.0 0.00 0.00 0.00 79 1008.6
20260504043303 51 127 3.0 5.0 0.00 0.00 0.00 79 1008.9
20260504042801 51 180 1.0 5.0 0.00 0.00 0.00 78 1008.8
20260504042257 51 197 1.0 6.0 0.00 0.00 0.00 77 1008.7
20260504041753 51 140 4.0 7.0 0.00 0.00 0.00 78 1008.9
20260504041249 51 108 2.0 7.0 0.00 0.00 0.00 79 1008.8
20260504040745 51 136 3.0 11.0 0.00 0.00 0.00 78 1008.7
20260504040243 50 130 5.0 7.0 0.00 0.00 0.00 78 1008.9
20260504035739 50 123 3.0 5.0 0.00 0.03 0.03 80 1009.0
20260504035236 51 135 4.0 9.0 0.00 0.03 0.03 78 1009.3
20260504034734 50 156 2.0 10.0 0.00 0.03 0.03 79 1009.2
20260504034231 50 137 3.0 6.0 0.00 0.03 0.03 79 1009.2
20260504033729 50 131 3.0 9.0 0.00 0.03 0.03 78 1009.3
20260504033226 50 139 3.0 7.0 0.00 0.03 0.03 79 1009.4
20260504032717 50 177 4.0 9.0 0.00 0.03 0.03 79 1009.5
20260504032214 50 137 2.0 7.0 0.00 0.03 0.03 79 1009.6
20260504031710 50 128 5.0 7.0 0.00 0.03 0.03 79 1009.3
20260504031208 50 135 3.0 9.0 0.00 0.03 0.03 79 1009.5
20260504030658 50 134 5.0 7.0 0.00 0.03 0.03 79 1009.6
20260504030156 50 136 3.0 8.0 0.00 0.03 0.03 79 1009.7
20260504025652 50 127 4.0 7.0 0.00 0.03 0.03 79 1009.8
20260504025149 50 145 3.0 7.0 0.00 0.03 0.03 80 1009.7
20260504024646 50 148 3.0 7.0 0.00 0.03 0.03 79 1010.1
20260504024142 50 141 3.0 7.0 0.00 0.03 0.03 79 1009.8
20260504023639 50 137 3.0 7.0 0.00 0.03 0.03 80 1009.8
20260504023135 50 120 3.0 7.0 0.00 0.03 0.03 80 1009.8
20260504022632 50 132 2.0 7.0 0.00 0.03 0.03 80 1010.0
20260504022127 50 136 3.0 7.0 0.00 0.03 0.03 81 1009.8
20260504021626 50 139 3.0 7.0 0.00 0.03 0.03 81 1009.8
20260504021122 49 145 4.0 7.0 0.00 0.03 0.03 81 1010.1
20260504020619 49 132 4.0 9.0 0.00 0.03 0.03 81 1009.8
20260504020115 49 164 4.0 8.0 0.00 0.03 0.03 82 1009.7
20260504015612 49 145 4.0 7.0 0.00 0.03 0.03 84 1010.0
20260504015108 49 130 4.0 7.0 0.00 0.03 0.03 84 1010.1
20260504014604 49 131 5.0 8.0 0.00 0.03 0.03 83 1010.1
20260504014102 48 132 3.0 9.0 0.00 0.03 0.03 85 1010.0
20260504013559 48 142 3.0 6.0 0.00 0.03 0.03 87 1010.2
20260504013055 48 132 2.0 5.0 0.00 0.03 0.03 89 1009.8
20260504012553 48 116 0.0 5.0 0.00 0.03 0.03 90 1010.1
20260504012051 48 139 3.0 7.0 0.00 0.03 0.03 89 1010.1
20260504011547 48 148 3.0 6.0 0.00 0.03 0.03 90 1010.0
20260504011043 48 148 2.0 7.0 0.00 0.03 0.03 89 1010.0
20260504010539 48 133 5.0 7.0 0.00 0.03 0.03 89 1010.0
20260504010036 48 130 3.0 6.0 0.00 0.03 0.03 90 1010.1
20260504005532 48 140 2.0 6.0 0.00 0.03 0.03 91 1010.1
20260504005030 48 154 3.0 5.0 0.00 0.03 0.03 91 1010.2
20260504004528 48 129 2.0 8.0 0.02 0.03 0.03 92 1010.1
20260504004024 48 136 3.0 5.0 0.02 0.03 0.03 92 1010.3
20260504003520 48 148 4.0 7.0 0.00 0.03 0.03 91 1010.1
20260504003017 48 143 3.0 7.0 0.00 0.03 0.03 91 1010.2
20260504002515 48 123 2.0 8.0 0.00 0.03 0.03 90 1010.2
20260504002012 48 146 7.0 7.0 0.00 0.03 0.03 89 1010.3
20260504001509 48 134 2.0 5.0 0.00 0.03 0.03 90 1010.4
20260504001005 48 129 2.0 5.0 0.00 0.03 0.03 90 1010.2
20260504000503 48 138 2.0 7.0 0.00 0.03 0.03 91 1010.2
20260504000000 48 127 1.0 4.0 0.00 0.03 0.03 92 1010.3
20260503235458 48 82 2.0 4.0 0.00 0.03 0.03 91 1010.3
20260503234955 48 142 3.0 8.0 0.00 0.03 0.03 91 1010.4
20260503234452 48 136 3.0 6.0 0.00 0.03 0.03 90 1010.1
20260503233950 48 136 4.0 6.0 0.00 0.03 0.03 92 1010.1
20260503233446 48 116 2.0 4.0 0.00 0.03 0.03 93 1010.4
20260503232943 48 98 2.0 5.0 0.00 0.03 0.03 92 1010.1
20260503232440 48 138 3.0 7.0 0.00 0.03 0.03 92 1010.1
20260503231937 48 134 3.0 7.0 0.00 0.03 0.03 91 1010.1
20260503231435 48 119 3.0 5.0 0.00 0.03 0.03 92 1010.4
20260503230931 48 155 0.0 5.0 0.00 0.03 0.03 92 1010.5
20260503230428 48 132 2.0 6.0 0.00 0.03 0.03 92 1010.3
20260503225926 48 122 3.0 4.0 0.00 0.03 0.03 91 1010.6
20260503225422 48 128 2.0 4.0 0.00 0.03 0.03 92 1010.6
20260503224917 48 77 1.0 4.0 0.00 0.03 0.03 92 1010.8
20260503224415 48 105 1.0 5.0 0.00 0.03 0.03 92 1010.8
20260503223913 48 132 3.0 7.0 0.00 0.03 0.03 91 1011.1
20260503223410 48 78 1.0 4.0 0.00 0.03 0.03 93 1011.3
20260503222905 48 126 4.0 5.0 0.00 0.03 0.03 93 1011.2
20260503222404 48 122 2.0 10.0 0.00 0.03 0.03 93 1011.3
20260503221901 47 143 4.0 10.0 0.00 0.03 0.03 93 1011.3
20260503221400 47 124 4.0 7.0 0.00 0.03 0.03 95 1011.4
20260503220856 47 133 2.0 5.0 0.00 0.03 0.03 96 1011.5
20260503220347 46 141 3.0 5.0 0.05 0.03 0.03 96 1011.4
20260503215844 46 143 5.0 7.0 0.09 0.02 0.02 95 1012.1
20260503215341 47 142 5.0 8.0 0.09 0.02 0.02 96 1012.5
20260503214838 47 198 6.0 11.0 0.05 0.01 0.01 92 1012.4
20260503214330 47 200 5.0 13.0 0.00 0.00 0.00 90 1012.5
20260503213827 48 212 6.0 20.0 0.00 0.00 0.00 87 1012.7
20260503213325 48 205 7.0 21.0 0.00 0.00 0.00 85 1012.9
20260503212821 49 226 16.0 23.0 0.00 0.00 0.00 79 1012.7
20260503212320 50 200 24.0 27.0 0.00 0.00 0.00 75 1012.4
20260503211817 50 218 7.0 29.0 0.00 0.00 0.00 71 1012.4
20260503211314 51 234 14.0 24.0 0.00 0.00 0.00 69 1012.4
20260503210813 51 274 15.0 39.0 0.00 0.00 0.00 68 1012.2
20260503210311 52 215 17.0 33.0 0.00 0.00 0.00 66 1012.1
20260503205806 52 252 23.0 36.0 0.00 0.00 0.00 65 1012.2
20260503205304 55 206 9.0 37.0 0.00 0.00 0.00 59 1012.1
20260503204800 58 187 5.0 29.0 0.00 0.00 0.00 49 1012.0
20260503204257 58 219 9.0 29.0 0.00 0.00 0.00 43 1011.9
20260503203754 59 222 17.0 23.0 0.00 0.00 0.00 45 1011.7
20260503203252 58 213 12.0 27.0 0.00 0.00 0.00 44 1011.8
20260503202748 58 210 11.0 28.0 0.00 0.00 0.00 44 1012.0
20260503202246 59 210 17.0 25.0 0.00 0.00 0.00 43 1012.0
20260503201744 59 145 2.0 23.0 0.00 0.00 0.00 46 1012.0
20260503201241 59 215 7.0 23.0 0.00 0.00 0.00 44 1012.3
20260503200737 59 229 7.0 17.0 0.00 0.00 0.00 45 1012.1
20260503200234 59 207 12.0 22.0 0.00 0.00 0.00 45 1012.4
20260503195731 59 222 16.0 32.0 0.00 0.00 0.00 43 1012.2
20260503195228 59 225 5.0 33.0 0.00 0.00 0.00 43 1012.2
20260503194726 60 217 17.0 33.0 0.00 0.00 0.00 42 1012.4
20260503194221 60 197 8.0 15.0 0.00 0.00 0.00 42 1012.5
20260503193717 61 222 7.0 27.0 0.00 0.00 0.00 40 1012.5
20260503193214 60 214 11.0 21.0 0.00 0.00 0.00 42 1012.3
20260503192709 60 216 15.0 25.0 0.00 0.00 0.00 43 1012.5
20260503192205 60 219 9.0 28.0 0.00 0.00 0.00 42 1012.7
20260503191702 61 210 12.0 20.0 0.00 0.00 0.00 41 1012.4
20260503191159 61 216 16.0 27.0 0.00 0.00 0.00 41 1012.5
20260503190655 60 219 7.0 26.0 0.00 0.00 0.00 42 1012.8
20260503190152 60 213 11.0 25.0 0.00 0.00 0.00 43 1012.6
20260503185643 61 213 16.0 32.0 0.00 0.00 0.00 40 1012.8
20260503185138 61 208 11.0 22.0 0.00 0.00 0.00 43 1013.0
20260503184634 61 227 11.0 28.0 0.00 0.00 0.00 39 1012.9
20260503184130 61 225 17.0 35.0 0.00 0.00 0.00 42 1013.1
20260503183627 60 212 8.0 24.0 0.00 0.00 0.00 44 1012.9
20260503183124 60 209 20.0 34.0 0.00 0.00 0.00 43 1013.2
20260503182622 60 220 13.0 35.0 0.00 0.00 0.00 41 1013.3
20260503182120 61 210 11.0 24.0 0.00 0.00 0.00 46 1013.2
20260503181617 60 216 17.0 20.0 0.00 0.00 0.00 43 1013.6
20260503181113 60 208 15.0 35.0 0.00 0.00 0.00 40 1013.4
20260503180611 61 204 7.0 24.0 0.00 0.00 0.00 42 1013.3
20260503180109 61 201 13.0 24.0 0.00 0.00 0.00 45 1013.6
20260503175605 59 221 9.0 22.0 0.00 0.00 0.00 42 1013.7
20260503175102 60 215 14.0 29.0 0.00 0.00 0.00 44 1013.7
20260503174553 59 216 12.0 26.0 0.00 0.00 0.00 45 1013.7
20260503174050 59 211 11.0 27.0 0.00 0.00 0.00 44 1014.0
20260503173545 60 230 5.0 25.0 0.00 0.00 0.00 44 1013.9
20260503173041 60 208 21.0 27.0 0.00 0.00 0.00 43 1014.1
20260503172539 59 198 9.0 26.0 0.00 0.00 0.00 41 1013.9
20260503172036 59 221 20.0 31.0 0.00 0.00 0.00 42 1014.0
20260503171532 60 233 7.0 24.0 0.00 0.00 0.00 47 1014.2
20260503171030 60 219 11.0 23.0 0.00 0.00 0.00 45 1014.3